Wetterdaten: Mittwoch, 08.07.2015
Datum Zeit Temp. A. Feuchte A. Luftdruck Regen Wind Richtung Richtung Sonnenschein ET UV Solar Taupunkt Windchill Windben Empfang
08.07.2015 00:00 24,1 C 70 % 1002,7 hPa 0,0 l/m 0,0 km/h (0 Bft) NO 50 0 min 0,000 mm 0,0 UV-I 0 W/m 18,3 C 24,1 C 0,0 km/h (0 Bft) 0,00 %
08.07.2015 00:05 24,0 C 71 % 1003,0 hPa 0,0 l/m 0,0 km/h (0 Bft) NO 53 0 min 0,000 mm 0,0 UV-I 0 W/m 18,4 C 24,0 C 0,0 km/h (0 Bft) 0,00 %
08.07.2015 00:10 23,8 C 71 % 1003,1 hPa 0,0 l/m 0,0 km/h (0 Bft) NO 53 0 min 0,000 mm 0,0 UV-I 0 W/m 18,2 C 23,8 C 0,0 km/h (0 Bft) 0,00 %
08.07.2015 00:15 23,6 C 71 % 1003,1 hPa 0,0 l/m 0,0 km/h (0 Bft) O 84 0 min 0,000 mm 0,0 UV-I 0 W/m 18,0 C 23,6 C 0,0 km/h (0 Bft) 0,00 %
08.07.2015 00:20 23,5 C 73 % 1003,1 hPa 0,0 l/m 0,0 km/h (0 Bft) O 84 0 min 0,000 mm 0,0 UV-I 0 W/m 18,4 C 23,5 C 0,0 km/h (0 Bft) 0,00 %
08.07.2015 00:25 23,5 C 73 % 1003,1 hPa 0,0 l/m 0,0 km/h (0 Bft) O 84 0 min 0,000 mm 0,0 UV-I 0 W/m 18,4 C 23,5 C 0,0 km/h (0 Bft) 0,00 %
08.07.2015 00:30 23,4 C 71 % 1003,4 hPa 0,0 l/m 0,0 km/h (0 Bft) O 84 0 min 0,000 mm 0,0 UV-I 0 W/m 17,8 C 23,4 C 0,0 km/h (0 Bft) 0,00 %
08.07.2015 00:35 23,4 C 74 % 1004,0 hPa 0,0 l/m 6,5 km/h (2 Bft) W-NW 291 0 min 0,000 mm 0,0 UV-I 0 W/m 18,5 C 23,4 C 7,9 km/h (2 Bft) 0,00 %
08.07.2015 00:40 23,4 C 62 % 1005,5 hPa 0,0 l/m 13,0 km/h (3 Bft) W-NW 301 0 min 0,000 mm 0,0 UV-I 0 W/m 15,7 C 21,7 C 19,8 km/h (3 Bft) 0,00 %
08.07.2015 00:45 24,5 C 58 % 1005,8 hPa 0,0 l/m 7,9 km/h (2 Bft) N-NW 332 0 min 0,000 mm 0,0 UV-I 0 W/m 15,7 C 24,1 C 11,9 km/h (2 Bft) 0,00 %
08.07.2015 00:50 25,8 C 53 % 1006,0 hPa 0,0 l/m 15,8 km/h (3 Bft) W-SW 252 0 min 0,000 mm 0,0 UV-I 0 W/m 15,5 C 24,2 C 19,8 km/h (3 Bft) 0,00 %
08.07.2015 00:55 26,3 C 46 % 1005,7 hPa 0,0 l/m 14,4 km/h (3 Bft) N-NW 335 0 min 0,000 mm 0,0 UV-I 0 W/m 13,7 C 25,0 C 19,8 km/h (3 Bft) 0,00 %
08.07.2015 01:00 26,6 C 41 % 1005,9 hPa 0,0 l/m 15,8 km/h (3 Bft) W-SW 256 0 min 0,000 mm 0,0 UV-I 0 W/m 12,2 C 25,2 C 19,8 km/h (3 Bft) 0,00 %
08.07.2015 01:05 26,6 C 42 % 1006,1 hPa 0,0 l/m 11,9 km/h (2 Bft) SW 224 0 min 0,000 mm 0,0 UV-I 0 W/m 12,6 C 25,6 C 15,8 km/h (3 Bft) 0,00 %
08.07.2015 01:10 26,3 C 43 % 1006,1 hPa 0,0 l/m 2,9 km/h (1 Bft) O-NO 72 0 min 0,000 mm 0,0 UV-I 0 W/m 12,7 C 26,3 C 7,9 km/h (2 Bft) 0,00 %
08.07.2015 01:15 26,1 C 46 % 1006,0 hPa 0,0 l/m 2,2 km/h (1 Bft) N-NW 347 0 min 0,000 mm 0,0 UV-I 0 W/m 13,6 C 26,1 C 4,0 km/h (1 Bft) 0,00 %
08.07.2015 01:20 25,8 C 48 % 1006,4 hPa 0,0 l/m 4,3 km/h (1 Bft) S-SO 161 0 min 0,000 mm 0,0 UV-I 0 W/m 13,9 C 25,8 C 11,9 km/h (2 Bft) 0,00 %
08.07.2015 01:25 25,5 C 49 % 1007,1 hPa 0,0 l/m 2,2 km/h (1 Bft) NO 43 0 min 0,000 mm 0,0 UV-I 0 W/m 14,0 C 25,5 C 4,0 km/h (1 Bft) 0,00 %
08.07.2015 01:30 25,1 C 52 % 1007,2 hPa 0,0 l/m 1,4 km/h (1 Bft) S 172 0 min 0,000 mm 0,0 UV-I 0 W/m 14,5 C 25,1 C 4,0 km/h (1 Bft) 0,00 %
08.07.2015 01:35 24,9 C 51 % 1007,0 hPa 0,0 l/m 6,8 km/h (2 Bft) NO 52 0 min 0,000 mm 0,0 UV-I 0 W/m 14,1 C 24,8 C 11,9 km/h (2 Bft) 0,00 %
08.07.2015 01:40 24,6 C 52 % 1007,1 hPa 0,0 l/m 1,4 km/h (1 Bft) S-SW 212 0 min 0,000 mm 0,0 UV-I 0 W/m 14,1 C 24,6 C 4,0 km/h (1 Bft) 0,00 %
08.07.2015 01:45 24,4 C 53 % 1007,0 hPa 0,0 l/m 0,4 km/h (0 Bft) S-SW 209 0 min 0,000 mm 0,0 UV-I 0 W/m 14,2 C 24,4 C 4,0 km/h (1 Bft) 0,00 %
08.07.2015 01:50 24,2 C 53 % 1007,1 hPa 0,0 l/m 1,4 km/h (1 Bft) NW 315 0 min 0,000 mm 0,0 UV-I 0 W/m 14,0 C 24,2 C 4,0 km/h (1 Bft) 0,00 %
08.07.2015 01:55 24,1 C 56 % 1006,9 hPa 0,0 l/m 0,0 km/h (0 Bft) N-NO 25 0 min 0,000 mm 0,0 UV-I 0 W/m 14,8 C 24,1 C 0,0 km/h (0 Bft) 0,00 %
08.07.2015 02:00 24,0 C 58 % 1006,3 hPa 0,0 l/m 0,0 km/h (0 Bft) N-NO 24 0 min 0,000 mm 0,0 UV-I 0 W/m 15,2 C 24,0 C 0,0 km/h (0 Bft) 0,00 %
08.07.2015 02:05 23,7 C 55 % 1006,3 hPa 0,0 l/m 0,0 km/h (0 Bft) N-NO 23 0 min 0,000 mm 0,0 UV-I 0 W/m 14,1 C 23,7 C 0,0 km/h (0 Bft) 0,00 %
08.07.2015 02:10 23,6 C 55 % 1006,3 hPa 0,0 l/m 1,4 km/h (1 Bft) N-NW 342 0 min 0,000 mm 0,0 UV-I 0 W/m 14,0 C 23,6 C 4,0 km/h (1 Bft) 0,00 %
08.07.2015 02:15 23,6 C 57 % 1006,3 hPa 0,0 l/m 0,4 km/h (0 Bft) N 353 0 min 0,000 mm 0,0 UV-I 0 W/m 14,6 C 23,6 C 4,0 km/h (1 Bft) 0,00 %
08.07.2015 02:20 23,5 C 61 % 1005,8 hPa 0,0 l/m 0,4 km/h (0 Bft) N-NO 27 0 min 0,000 mm 0,0 UV-I 0 W/m 15,5 C 23,5 C 4,0 km/h (1 Bft) 0,00 %
08.07.2015 02:25 23,2 C 62 % 1005,4 hPa 0,0 l/m 5,4 km/h (1 Bft) N-NO 23 0 min 0,000 mm 0,0 UV-I 0 W/m 15,5 C 23,2 C 7,9 km/h (2 Bft) 0,00 %
08.07.2015 02:30 22,9 C 62 % 1004,9 hPa 0,0 l/m 0,4 km/h (0 Bft) N-NO 16 0 min 0,000 mm 0,0 UV-I 0 W/m 15,2 C 22,9 C 4,0 km/h (1 Bft) 0,00 %
08.07.2015 02:35 22,6 C 63 % 1004,9 hPa 0,0 l/m 2,2 km/h (1 Bft) NO 40 0 min 0,000 mm 0,0 UV-I 0 W/m 15,2 C 22,6 C 4,0 km/h (1 Bft) 0,00 %
08.07.2015 02:40 22,4 C 63 % 1004,0 hPa 0,0 l/m 13,3 km/h (3 Bft) O 80 0 min 0,000 mm 0,0 UV-I 0 W/m 15,0 C 20,5 C 19,8 km/h (3 Bft) 0,00 %
08.07.2015 02:45 22,5 C 62 % 1004,9 hPa 0,0 l/m 1,4 km/h (1 Bft) NO 37 0 min 0,000 mm 0,0 UV-I 0 W/m 14,8 C 22,5 C 4,0 km/h (1 Bft) 0,00 %
08.07.2015 02:50 22,5 C 64 % 1005,3 hPa 0,0 l/m 1,4 km/h (1 Bft) N-NW 333 0 min 0,000 mm 0,0 UV-I 0 W/m 15,3 C 22,5 C 4,0 km/h (1 Bft) 0,00 %
08.07.2015 02:55 22,3 C 60 % 1005,2 hPa 0,0 l/m 0,4 km/h (0 Bft) NO 48 0 min 0,000 mm 0,0 UV-I 0 W/m 14,2 C 22,3 C 4,0 km/h (1 Bft) 0,00 %
08.07.2015 03:00 22,5 C 60 % 1005,2 hPa 0,0 l/m 0,0 km/h (0 Bft) NO 38 0 min 0,000 mm 0,0 UV-I 0 W/m 14,3 C 22,5 C 0,0 km/h (0 Bft) 0,00 %
08.07.2015 03:05 22,6 C 58 % 1005,1 hPa 0,0 l/m 0,0 km/h (0 Bft) N-NO 30 0 min 0,000 mm 0,0 UV-I 0 W/m 13,9 C 22,6 C 0,0 km/h (0 Bft) 0,00 %
08.07.2015 03:10 22,7 C 55 % 1005,2 hPa 0,0 l/m 0,0 km/h (0 Bft) NO 34 0 min 0,000 mm 0,0 UV-I 0 W/m 13,2 C 22,7 C 0,0 km/h (0 Bft) 0,00 %
08.07.2015 03:15 22,9 C 53 % 1005,2 hPa 0,0 l/m 0,0 km/h (0 Bft) NO 48 0 min 0,000 mm 0,0 UV-I 0 W/m 12,8 C 22,9 C 0,0 km/h (0 Bft) 0,00 %
08.07.2015 03:20 23,1 C 54 % 1005,4 hPa 0,0 l/m 0,0 km/h (0 Bft) NO 41 0 min 0,000 mm 0,0 UV-I 0 W/m 13,3 C 23,1 C 0,0 km/h (0 Bft) 0,00 %
08.07.2015 03:25 23,2 C 54 % 1006,3 hPa 0,0 l/m 0,0 km/h (0 Bft) N-NW 342 0 min 0,000 mm 0,0 UV-I 0 W/m 13,4 C 23,2 C 0,0 km/h (0 Bft) 0,00 %
08.07.2015 03:30 23,0 C 60 % 1006,4 hPa 0,0 l/m 3,2 km/h (1 Bft) O 81 0 min 0,000 mm 0,0 UV-I 0 W/m 14,8 C 23,0 C 7,9 km/h (2 Bft) 0,00 %
08.07.2015 03:35 22,7 C 62 % 1006,4 hPa 0,0 l/m 0,7 km/h (0 Bft) N-NO 30 0 min 0,000 mm 0,0 UV-I 0 W/m 15,0 C 22,7 C 4,0 km/h (1 Bft) 0,00 %
08.07.2015 03:40 22,4 C 62 % 1006,6 hPa 0,0 l/m 2,9 km/h (1 Bft) SW 226 0 min 0,000 mm 0,0 UV-I 0 W/m 14,8 C 22,4 C 7,9 km/h (2 Bft) 0,00 %
08.07.2015 03:45 22,2 C 63 % 1006,6 hPa 0,0 l/m 0,4 km/h (0 Bft) NO 36 0 min 0,000 mm 0,0 UV-I 0 W/m 14,8 C 22,2 C 4,0 km/h (1 Bft) 0,00 %
08.07.2015 03:50 22,0 C 63 % 1006,4 hPa 0,0 l/m 0,0 km/h (0 Bft) N-NO 33 0 min 0,000 mm 0,0 UV-I 0 W/m 14,6 C 22,0 C 0,0 km/h (0 Bft) 0,00 %
08.07.2015 03:55 21,9 C 63 % 1006,6 hPa 0,0 l/m 0,0 km/h (0 Bft) NO 51 0 min 0,000 mm 0,0 UV-I 0 W/m 14,5 C 21,9 C 0,0 km/h (0 Bft) 0,00 %
08.07.2015 04:00 21,8 C 63 % 1006,6 hPa 0,0 l/m 0,0 km/h (0 Bft) NO 47 0 min 0,000 mm 0,0 UV-I 0 W/m 14,4 C 21,8 C 0,0 km/h (0 Bft) 0,00 %
08.07.2015 04:05 21,7 C 64 % 1006,7 hPa 0,0 l/m 0,0 km/h (0 Bft) NO 39 0 min 0,000 mm 0,0 UV-I 0 W/m 14,6 C 21,7 C 0,0 km/h (0 Bft) 0,00 %
08.07.2015 04:10 21,5 C 65 % 1006,7 hPa 0,0 l/m 0,4 km/h (0 Bft) N-NW 340 0 min 0,000 mm 0,0 UV-I 0 W/m 14,6 C 21,5 C 4,0 km/h (1 Bft) 0,00 %
08.07.2015 04:15 21,4 C 65 % 1006,9 hPa 0,0 l/m 2,2 km/h (1 Bft) N-NO 17 0 min 0,000 mm 0,0 UV-I 0 W/m 14,5 C 21,4 C 7,9 km/h (2 Bft) 0,00 %
08.07.2015 04:20 21,3 C 65 % 1007,4 hPa 0,0 l/m 0,0 km/h (0 Bft) NO 46 0 min 0,000 mm 0,0 UV-I 0 W/m 14,4 C 21,3 C 0,0 km/h (0 Bft) 0,00 %
08.07.2015 04:25 21,3 C 65 % 1007,5 hPa 0,0 l/m 3,2 km/h (1 Bft) W-SW 256 0 min 0,000 mm 0,0 UV-I 0 W/m 14,4 C 21,3 C 7,9 km/h (2 Bft) 0,00 %
08.07.2015 04:30 21,4 C 64 % 1007,6 hPa 0,0 l/m 0,7 km/h (0 Bft) N-NW 345 0 min 0,000 mm 0,0 UV-I 0 W/m 14,3 C 21,4 C 4,0 km/h (1 Bft) 0,00 %
08.07.2015 04:35 21,5 C 63 % 1007,9 hPa 0,0 l/m 4,7 km/h (1 Bft) W-NW 300 0 min 0,000 mm 0,0 UV-I 0 W/m 14,2 C 21,5 C 7,9 km/h (2 Bft) 0,00 %
08.07.2015 04:40 21,7 C 62 % 1007,7 hPa 0,0 l/m 4,0 km/h (1 Bft) W-SW 256 0 min 0,000 mm 0,0 UV-I 0 W/m 14,1 C 21,7 C 7,9 km/h (2 Bft) 0,00 %
08.07.2015 04:45 21,8 C 62 % 1007,9 hPa 0,0 l/m 1,4 km/h (1 Bft) NW 320 0 min 0,000 mm 0,0 UV-I 0 W/m 14,2 C 21,8 C 4,0 km/h (1 Bft) 0,00 %
08.07.2015 04:50 21,9 C 62 % 1007,6 hPa 0,0 l/m 0,0 km/h (0 Bft) N 354 0 min 0,000 mm 0,0 UV-I 0 W/m 14,3 C 21,9 C 0,0 km/h (0 Bft) 0,00 %
08.07.2015 04:55 21,9 C 62 % 1008,2 hPa 0,0 l/m 7,2 km/h (2 Bft) W 281 0 min 0,000 mm 0,0 UV-I 0 W/m 14,3 C 21,6 C 11,9 km/h (2 Bft) 0,00 %
08.07.2015 05:00 21,9 C 62 % 1008,6 hPa 0,0 l/m 5,4 km/h (1 Bft) W-NW 289 0 min 0,000 mm 0,0 UV-I 0 W/m 14,3 C 21,9 C 7,9 km/h (2 Bft) 0,00 %
08.07.2015 05:05 21,9 C 62 % 1008,5 hPa 0,0 l/m 6,5 km/h (2 Bft) W-SW 254 0 min 0,000 mm 0,0 UV-I 0 W/m 14,3 C 21,9 C 7,9 km/h (2 Bft) 0,00 %
08.07.2015 05:10 21,9 C 62 % 1008,4 hPa 0,0 l/m 1,4 km/h (1 Bft) N 352 0 min 0,000 mm 0,0 UV-I 0 W/m 14,3 C 21,9 C 4,0 km/h (1 Bft) 0,00 %
08.07.2015 05:15 22,0 C 67 % 1008,7 hPa 0,3 l/m 9,4 km/h (2 Bft) W 278 0 min 0,000 mm 0,0 UV-I 0 W/m 15,6 C 21,0 C 11,9 km/h (2 Bft) 0,00 %
08.07.2015 05:20 21,6 C 71 % 1008,9 hPa 0,0 l/m 2,9 km/h (1 Bft) W-SW 253 0 min 0,000 mm 0,0 UV-I 0 W/m 16,1 C 21,6 C 7,9 km/h (2 Bft) 0,00 %
08.07.2015 05:25 21,0 C 69 % 1008,8 hPa 0,0 l/m 1,8 km/h (1 Bft) N-NW 338 0 min 0,000 mm 0,0 UV-I 0 W/m 15,1 C 21,0 C 4,0 km/h (1 Bft) 0,00 %
08.07.2015 05:30 20,9 C 71 % 1008,9 hPa 0,0 l/m 1,8 km/h (1 Bft) W-NW 301 0 min 0,000 mm 0,0 UV-I 0 W/m 15,4 C 20,9 C 4,0 km/h (1 Bft) 0,00 %
08.07.2015 05:35 20,9 C 70 % 1009,0 hPa 0,0 l/m 5,8 km/h (2 Bft) W-SW 255 0 min 0,000 mm 0,0 UV-I 0 W/m 15,2 C 20,9 C 7,9 km/h (2 Bft) 0,00 %
08.07.2015 05:40 20,9 C 70 % 1008,8 hPa 0,0 l/m 2,9 km/h (1 Bft) NW 323 0 min 0,000 mm 0,0 UV-I 0 W/m 15,2 C 20,9 C 7,9 km/h (2 Bft) 0,00 %
08.07.2015 05:45 20,9 C 72 % 1009,0 hPa 0,0 l/m 0,7 km/h (0 Bft) N-NW 346 0 min 0,000 mm 0,0 UV-I 0 W/m 15,7 C 20,9 C 4,0 km/h (1 Bft) 0,00 %
08.07.2015 05:50 20,8 C 73 % 1008,7 hPa 0,0 l/m 0,0 km/h (0 Bft) NO 56 0 min 0,000 mm 0,0 UV-I 1 W/m 15,8 C 20,8 C 0,0 km/h (0 Bft) 0,00 %
08.07.2015 05:55 20,8 C 74 % 1009,0 hPa 0,0 l/m 4,3 km/h (1 Bft) W-SW 257 0 min 0,000 mm 0,0 UV-I 1 W/m 16,0 C 20,8 C 7,9 km/h (2 Bft) 0,00 %
08.07.2015 06:00 20,8 C 75 % 1008,8 hPa 0,0 l/m 0,7 km/h (0 Bft) NW 324 0 min 0,000 mm 0,0 UV-I 16 W/m 16,2 C 20,8 C 4,0 km/h (1 Bft) 0,00 %
08.07.2015 06:05 20,8 C 75 % 1008,9 hPa 0,0 l/m 0,0 km/h (0 Bft) NO 38 0 min 0,000 mm 0,0 UV-I 29 W/m 16,2 C 20,8 C 0,0 km/h (0 Bft) 0,00 %
08.07.2015 06:10 20,8 C 75 % 1008,8 hPa 0,0 l/m 0,4 km/h (0 Bft) NO 36 0 min 0,000 mm 0,0 UV-I 40 W/m 16,2 C 20,8 C 4,0 km/h (1 Bft) 0,00 %
08.07.2015 06:15 20,8 C 75 % 1009,3 hPa 0,0 l/m 0,0 km/h (0 Bft) NO 38 0 min 0,000 mm 0,0 UV-I 51 W/m 16,2 C 20,8 C 0,0 km/h (0 Bft) 0,00 %
08.07.2015 06:20 20,9 C 73 % 1009,5 hPa 0,0 l/m 3,2 km/h (1 Bft) N 354 0 min 0,000 mm 0,0 UV-I 51 W/m 15,9 C 20,9 C 4,0 km/h (1 Bft) 0,00 %
08.07.2015 06:25 20,9 C 71 % 1009,1 hPa 0,0 l/m 3,2 km/h (1 Bft) SW 225 0 min 0,000 mm 0,0 UV-I 53 W/m 15,4 C 20,9 C 7,9 km/h (2 Bft) 0,00 %
08.07.2015 06:30 21,1 C 70 % 1009,3 hPa 0,0 l/m 0,0 km/h (0 Bft) NO 55 0 min 0,000 mm 0,0 UV-I 61 W/m 15,4 C 21,1 C 0,0 km/h (0 Bft) 0,00 %
08.07.2015 06:35 21,2 C 70 % 1009,2 hPa 0,0 l/m 7,9 km/h (2 Bft) W-SW 254 0 min 0,000 mm 1,0 UV-I 78 W/m 15,5 C 20,6 C 11,9 km/h (2 Bft) 0,00 %
08.07.2015 06:40 21,5 C 69 % 1009,1 hPa 0,0 l/m 10,8 km/h (2 Bft) W-SW 256 5 min 0,000 mm 1,0 UV-I 190 W/m 15,6 C 20,1 C 15,8 km/h (3 Bft) 0,00 %
08.07.2015 06:45 21,9 C 68 % 1008,8 hPa 0,0 l/m 4,0 km/h (1 Bft) NW 307 5 min 0,000 mm 1,0 UV-I 217 W/m 15,7 C 21,9 C 7,9 km/h (2 Bft) 0,00 %
08.07.2015 06:50 22,0 C 68 % 1008,6 hPa 0,0 l/m 10,4 km/h (2 Bft) W-SW 256 5 min 0,000 mm 1,0 UV-I 250 W/m 15,8 C 20,7 C 11,9 km/h (2 Bft) 0,00 %
08.07.2015 06:55 22,1 C 68 % 1008,5 hPa 0,0 l/m 4,7 km/h (1 Bft) W-SW 256 5 min 0,000 mm 1,0 UV-I 272 W/m 15,9 C 22,1 C 7,9 km/h (2 Bft) 0,00 %
08.07.2015 07:00 22,1 C 68 % 1008,5 hPa 0,0 l/m 0,4 km/h (0 Bft) NO 41 5 min 0,000 mm 1,0 UV-I 259 W/m 15,9 C 22,1 C 4,0 km/h (1 Bft) 0,00 %
08.07.2015 07:05 22,3 C 68 % 1008,4 hPa 0,0 l/m 7,2 km/h (2 Bft) W-SW 256 5 min 0,000 mm 1,0 UV-I 341 W/m 16,1 C 22,0 C 11,9 km/h (2 Bft) 0,00 %
08.07.2015 07:10 22,6 C 65 % 1008,3 hPa 0,0 l/m 1,8 km/h (1 Bft) O-SO 104 5 min 0,000 mm 1,0 UV-I 359 W/m 15,7 C 22,6 C 4,0 km/h (1 Bft) 0,00 %
08.07.2015 07:15 22,9 C 65 % 1008,3 hPa 0,0 l/m 0,7 km/h (0 Bft) W-NW 301 5 min 0,000 mm 1,0 UV-I 361 W/m 16,0 C 22,9 C 4,0 km/h (1 Bft) 0,00 %
08.07.2015 07:20 23,2 C 65 % 1008,2 hPa 0,0 l/m 4,0 km/h (1 Bft) W 272 5 min 0,000 mm 1,0 UV-I 363 W/m 16,2 C 23,2 C 4,0 km/h (1 Bft) 0,00 %
08.07.2015 07:25 23,4 C 63 % 1007,9 hPa 0,0 l/m 5,8 km/h (2 Bft) W 272 5 min 0,000 mm 1,0 UV-I 368 W/m 15,9 C 23,4 C 7,9 km/h (2 Bft) 0,00 %
08.07.2015 07:30 23,4 C 63 % 1008,1 hPa 0,0 l/m 2,9 km/h (1 Bft) NW 309 5 min 0,000 mm 1,0 UV-I 349 W/m 15,9 C 23,4 C 4,0 km/h (1 Bft) 0,00 %
08.07.2015 07:35 23,3 C 62 % 1008,3 hPa 0,0 l/m 6,8 km/h (2 Bft) W-SW 256 5 min 0,000 mm 1,0 UV-I 387 W/m 15,6 C 23,2 C 11,9 km/h (2 Bft) 0,00 %
08.07.2015 07:40 23,4 C 63 % 1008,3 hPa 0,0 l/m 1,8 km/h (1 Bft) W-NW 287 5 min 0,000 mm 1,0 UV-I 396 W/m 15,9 C 23,4 C 4,0 km/h (1 Bft) 0,00 %
08.07.2015 07:45 23,5 C 62 % 1008,3 hPa 0,0 l/m 0,4 km/h (0 Bft) NO 34 5 min 0,000 mm 1,0 UV-I 410 W/m 15,8 C 23,5 C 4,0 km/h (1 Bft) 0,00 %
08.07.2015 07:50 23,7 C 57 % 1008,3 hPa 0,0 l/m 5,8 km/h (2 Bft) W-SW 256 5 min 0,000 mm 1,0 UV-I 423 W/m 14,7 C 23,7 C 7,9 km/h (2 Bft) 0,00 %
08.07.2015 07:55 23,8 C 57 % 1008,3 hPa 0,0 l/m 0,7 km/h (0 Bft) W-NW 294 5 min 0,000 mm 1,0 UV-I 452 W/m 14,8 C 23,8 C 4,0 km/h (1 Bft) 0,00 %
08.07.2015 08:00 23,9 C 57 % 1008,5 hPa 0,0 l/m 0,0 km/h (0 Bft) O-NO 65 5 min 0,000 mm 2,0 UV-I 507 W/m 14,9 C 23,9 C 0,0 km/h (0 Bft) 0,00 %
08.07.2015 08:05 24,2 C 55 % 1008,2 hPa 0,0 l/m 11,9 km/h (2 Bft) W-SW 257 5 min 0,000 mm 2,0 UV-I 548 W/m 14,6 C 22,9 C 15,8 km/h (3 Bft) 0,00 %
08.07.2015 08:10 24,2 C 56 % 1008,4 hPa 0,0 l/m 11,9 km/h (2 Bft) W-SW 256 5 min 0,000 mm 2,0 UV-I 570 W/m 14,9 C 22,9 C 19,8 km/h (3 Bft) 0,00 %
08.07.2015 08:15 24,2 C 53 % 1008,3 hPa 0,0 l/m 4,0 km/h (1 Bft) NW 311 5 min 0,000 mm 1,0 UV-I 406 W/m 14,0 C 24,2 C 7,9 km/h (2 Bft) 0,00 %
08.07.2015 08:20 24,2 C 52 % 1008,4 hPa 0,0 l/m 4,7 km/h (1 Bft) NW 315 5 min 0,000 mm 1,0 UV-I 304 W/m 13,7 C 24,2 C 7,9 km/h (2 Bft) 0,00 %
08.07.2015 08:25 24,0 C 55 % 1008,5 hPa 0,0 l/m 7,9 km/h (2 Bft) W-NW 285 0 min 0,000 mm 1,0 UV-I 235 W/m 14,4 C 23,6 C 11,9 km/h (2 Bft) 0,00 %
08.07.2015 08:30 23,4 C 56 % 1008,3 hPa 0,0 l/m 0,0 km/h (0 Bft) NO 36 0 min 0,000 mm 1,0 UV-I 240 W/m 14,1 C 23,4 C 0,0 km/h (0 Bft) 0,00 %
08.07.2015 08:35 23,0 C 58 % 1008,4 hPa 0,0 l/m 4,7 km/h (1 Bft) N-NW 344 5 min 0,000 mm 1,0 UV-I 286 W/m 14,3 C 23,0 C 7,9 km/h (2 Bft) 0,00 %
08.07.2015 08:40 22,9 C 55 % 1008,5 hPa 0,0 l/m 1,4 km/h (1 Bft) N 356 5 min 0,000 mm 2,0 UV-I 332 W/m 13,4 C 22,9 C 4,0 km/h (1 Bft) 0,00 %
08.07.2015 08:45 23,0 C 55 % 1008,5 hPa 0,0 l/m 2,9 km/h (1 Bft) O-NO 64 5 min 0,000 mm 2,0 UV-I 365 W/m 13,5 C 23,0 C 7,9 km/h (2 Bft) 0,00 %
08.07.2015 08:50 23,2 C 55 % 1008,3 hPa 0,0 l/m 1,8 km/h (1 Bft) NO 40 5 min 0,000 mm 2,0 UV-I 613 W/m 13,6 C 23,2 C 4,0 km/h (1 Bft) 0,00 %
08.07.2015 08:55 23,7 C 51 % 1008,3 hPa 0,0 l/m 2,2 km/h (1 Bft) NW 305 5 min 0,000 mm 2,0 UV-I 410 W/m 13,0 C 23,7 C 4,0 km/h (1 Bft) 0,00 %
08.07.2015 09:00 24,2 C 50 % 1008,2 hPa 0,0 l/m 0,7 km/h (0 Bft) S 190 5 min 0,000 mm 2,0 UV-I 432 W/m 13,1 C 24,2 C 4,0 km/h (1 Bft) 0,00 %
08.07.2015 09:05 24,1 C 50 % 1008,0 hPa 0,0 l/m 3,2 km/h (1 Bft) N 350 0 min 0,000 mm 1,0 UV-I 277 W/m 13,0 C 24,1 C 4,0 km/h (1 Bft) 0,00 %
08.07.2015 09:10 23,7 C 53 % 1008,3 hPa 0,0 l/m 0,4 km/h (0 Bft) N-NO 20 0 min 0,000 mm 1,0 UV-I 293 W/m 13,5 C 23,7 C 4,0 km/h (1 Bft) 0,00 %
08.07.2015 09:15 23,5 C 53 % 1008,5 hPa 0,0 l/m 0,7 km/h (0 Bft) NO 53 0 min 0,000 mm 1,0 UV-I 218 W/m 13,4 C 23,5 C 4,0 km/h (1 Bft) 0,00 %
08.07.2015 09:20 23,3 C 56 % 1008,8 hPa 0,0 l/m 10,4 km/h (2 Bft) W 267 0 min 0,000 mm 1,0 UV-I 148 W/m 14,0 C 22,2 C 11,9 km/h (2 Bft) 0,00 %
08.07.2015 09:25 22,7 C 58 % 1008,7 hPa 0,0 l/m 0,4 km/h (0 Bft) O-NO 64 0 min 0,000 mm 1,0 UV-I 131 W/m 14,0 C 22,7 C 4,0 km/h (1 Bft) 0,00 %
08.07.2015 09:30 22,2 C 60 % 1008,4 hPa 0,0 l/m 3,2 km/h (1 Bft) W 272 0 min 0,000 mm 1,0 UV-I 157 W/m 14,1 C 22,2 C 7,9 km/h (2 Bft) 0,00 %
08.07.2015 09:35 21,9 C 62 % 1008,4 hPa 0,0 l/m 0,0 km/h (0 Bft) NW 320 0 min 0,000 mm 1,0 UV-I 171 W/m 14,3 C 21,9 C 0,0 km/h (0 Bft) 0,00 %
08.07.2015 09:40 21,9 C 63 % 1008,3 hPa 0,0 l/m 0,0 km/h (0 Bft) N 350 0 min 0,000 mm 1,0 UV-I 178 W/m 14,5 C 21,9 C 0,0 km/h (0 Bft) 0,00 %
08.07.2015 09:45 21,9 C 64 % 1008,2 hPa 0,0 l/m 0,0 km/h (0 Bft) NO 37 0 min 0,000 mm 1,0 UV-I 185 W/m 14,8 C 21,9 C 0,0 km/h (0 Bft) 0,00 %
08.07.2015 09:50 21,9 C 65 % 1008,5 hPa 0,0 l/m 0,0 km/h (0 Bft) NO 49 0 min 0,000 mm 1,0 UV-I 202 W/m 15,0 C 21,9 C 0,0 km/h (0 Bft) 0,00 %
08.07.2015 09:55 21,9 C 63 % 1008,6 hPa 0,0 l/m 1,4 km/h (1 Bft) NW 308 0 min 0,000 mm 1,0 UV-I 195 W/m 14,5 C 21,9 C 4,0 km/h (1 Bft) 0,00 %
08.07.2015 10:00 21,9 C 64 % 1008,7 hPa 0,0 l/m 1,8 km/h (1 Bft) NW 312 0 min 0,000 mm 1,0 UV-I 208 W/m 14,8 C 21,9 C 4,0 km/h (1 Bft) 0,00 %
08.07.2015 10:05 21,9 C 64 % 1008,7 hPa 0,0 l/m 6,5 km/h (2 Bft) W-SW 256 0 min 0,000 mm 1,0 UV-I 187 W/m 14,8 C 21,9 C 7,9 km/h (2 Bft) 0,00 %
08.07.2015 10:10 21,9 C 63 % 1008,6 hPa 0,0 l/m 0,0 km/h (0 Bft) N 351 0 min 0,000 mm 1,0 UV-I 172 W/m 14,5 C 21,9 C 0,0 km/h (0 Bft) 0,00 %
08.07.2015 10:15 21,8 C 63 % 1008,7 hPa 0,0 l/m 0,4 km/h (0 Bft) N 349 0 min 0,000 mm 1,0 UV-I 141 W/m 14,4 C 21,8 C 4,0 km/h (1 Bft) 0,00 %
08.07.2015 10:20 21,7 C 63 % 1008,6 hPa 0,0 l/m 0,0 km/h (0 Bft) NO 47 0 min 0,000 mm 1,0 UV-I 104 W/m 14,3 C 21,7 C 0,0 km/h (0 Bft) 0,00 %
08.07.2015 10:25 21,5 C 64 % 1008,5 hPa 0,0 l/m 0,4 km/h (0 Bft) N 349 0 min 0,000 mm 1,0 UV-I 94 W/m 14,4 C 21,5 C 4,0 km/h (1 Bft) 0,00 %
08.07.2015 10:30 21,4 C 64 % 1008,5 hPa 0,0 l/m 0,0 km/h (0 Bft) N-NO 17 0 min 0,000 mm 1,0 UV-I 100 W/m 14,3 C 21,4 C 0,0 km/h (0 Bft) 0,00 %
08.07.2015 10:35 21,3 C 65 % 1008,2 hPa 0,0 l/m 0,0 km/h (0 Bft) N-NO 26 0 min 0,000 mm 1,0 UV-I 139 W/m 14,4 C 21,3 C 0,0 km/h (0 Bft) 0,00 %
08.07.2015 10:40 21,2 C 68 % 1007,9 hPa 0,0 l/m 0,0 km/h (0 Bft) N-NW 348 0 min 0,000 mm 1,0 UV-I 254 W/m 15,1 C 21,2 C 0,0 km/h (0 Bft) 0,00 %
08.07.2015 10:45 21,2 C 68 % 1008,0 hPa 0,0 l/m 0,0 km/h (0 Bft) N 354 0 min 0,000 mm 1,0 UV-I 323 W/m 15,1 C 21,2 C 0,0 km/h (0 Bft) 0,00 %
08.07.2015 10:50 21,2 C 72 % 1008,4 hPa 0,0 l/m 0,4 km/h (0 Bft) N-NO 30 0 min 0,000 mm 2,0 UV-I 351 W/m 15,9 C 21,2 C 4,0 km/h (1 Bft) 0,00 %
08.07.2015 10:55 21,4 C 70 % 1008,3 hPa 0,0 l/m 4,0 km/h (1 Bft) NW 307 0 min 0,000 mm 2,0 UV-I 429 W/m 15,7 C 21,4 C 4,0 km/h (1 Bft) 0,00 %
08.07.2015 11:00 21,7 C 69 % 1008,5 hPa 0,0 l/m 0,0 km/h (0 Bft) NO 56 0 min 0,000 mm 2,0 UV-I 430 W/m 15,8 C 21,7 C 0,0 km/h (0 Bft) 0,00 %
08.07.2015 11:05 22,0 C 66 % 1008,6 hPa 0,0 l/m 5,4 km/h (1 Bft) W 272 5 min 0,000 mm 2,0 UV-I 444 W/m 15,3 C 22,0 C 7,9 km/h (2 Bft) 0,00 %
08.07.2015 11:10 22,3 C 65 % 1008,5 hPa 0,0 l/m 0,0 km/h (0 Bft) N-NW 335 5 min 0,000 mm 2,0 UV-I 445 W/m 15,4 C 22,3 C 0,0 km/h (0 Bft) 0,00 %
08.07.2015 11:15 22,7 C 62 % 1008,3 hPa 0,0 l/m 0,0 km/h (0 Bft) NO 50 0 min 0,000 mm 2,0 UV-I 437 W/m 15,0 C 22,7 C 0,0 km/h (0 Bft) 0,00 %
08.07.2015 11:20 23,1 C 63 % 1008,2 hPa 0,0 l/m 3,2 km/h (1 Bft) W-NW 286 0 min 0,000 mm 2,0 UV-I 399 W/m 15,7 C 23,1 C 4,0 km/h (1 Bft) 0,00 %
08.07.2015 11:25 23,4 C 62 % 1008,1 hPa 0,0 l/m 0,0 km/h (0 Bft) NW 326 0 min 0,000 mm 2,0 UV-I 350 W/m 15,7 C 23,4 C 0,0 km/h (0 Bft) 0,00 %
08.07.2015 11:30 23,7 C 61 % 1007,9 hPa 0,0 l/m 0,0 km/h (0 Bft) O-NO 66 0 min 0,000 mm 2,0 UV-I 301 W/m 15,7 C 23,7 C 0,0 km/h (0 Bft) 0,00 %
08.07.2015 11:35 23,9 C 61 % 1008,0 hPa 0,0 l/m 0,0 km/h (0 Bft) O-NO 76 0 min 0,000 mm 2,0 UV-I 296 W/m 15,9 C 23,9 C 0,0 km/h (0 Bft) 0,00 %
08.07.2015 11:40 24,1 C 62 % 1008,0 hPa 0,0 l/m 2,2 km/h (1 Bft) W-NW 301 0 min 0,000 mm 1,0 UV-I 334 W/m 16,4 C 24,1 C 4,0 km/h (1 Bft) 0,00 %
08.07.2015 11:45 24,0 C 64 % 1007,7 hPa 0,0 l/m 8,3 km/h (2 Bft) W 276 5 min 0,000 mm 2,0 UV-I 498 W/m 16,8 C 23,5 C 11,9 km/h (2 Bft) 0,00 %
08.07.2015 11:50 23,6 C 66 % 1008,1 hPa 0,0 l/m 0,0 km/h (0 Bft) N-NW 340 5 min 0,000 mm 2,0 UV-I 509 W/m 16,9 C 23,6 C 0,0 km/h (0 Bft) 0,00 %
08.07.2015 11:55 23,4 C 66 % 1007,9 hPa 0,0 l/m 2,2 km/h (1 Bft) NW 324 0 min 0,000 mm 3,0 UV-I 462 W/m 16,7 C 23,4 C 4,0 km/h (1 Bft) 0,00 %
08.07.2015 12:00 23,8 C 66 % 1007,6 hPa 0,0 l/m 4,7 km/h (1 Bft) N 352 0 min 0,000 mm 2,0 UV-I 411 W/m 17,1 C 23,8 C 7,9 km/h (2 Bft) 0,00 %
08.07.2015 12:05 23,9 C 65 % 1007,8 hPa 0,0 l/m 0,0 km/h (0 Bft) N-NW 334 0 min 0,000 mm 3,0 UV-I 382 W/m 16,9 C 23,9 C 0,0 km/h (0 Bft) 0,00 %
08.07.2015 12:10 23,9 C 67 % 1007,5 hPa 0,0 l/m 6,5 km/h (2 Bft) W-NW 296 5 min 0,000 mm 2,0 UV-I 869 W/m 17,4 C 23,9 C 7,9 km/h (2 Bft) 0,00 %
08.07.2015 12:15 23,8 C 67 % 1007,5 hPa 0,0 l/m 4,0 km/h (1 Bft) W-SW 238 5 min 0,000 mm 2,0 UV-I 563 W/m 17,3 C 23,8 C 7,9 km/h (2 Bft) 0,00 %
08.07.2015 12:20 23,7 C 67 % 1007,4 hPa 0,0 l/m 0,0 km/h (0 Bft) NO 48 0 min 0,000 mm 3,0 UV-I 460 W/m 17,2 C 23,7 C 0,0 km/h (0 Bft) 0,00 %
08.07.2015 12:25 24,0 C 64 % 1007,3 hPa 0,0 l/m 1,8 km/h (1 Bft) W 269 0 min 0,000 mm 4,0 UV-I 389 W/m 16,8 C 24,0 C 4,0 km/h (1 Bft) 0,00 %
08.07.2015 12:30 24,5 C 62 % 1007,4 hPa 0,0 l/m 2,9 km/h (1 Bft) N-NO 20 0 min 0,000 mm 3,0 UV-I 294 W/m 16,7 C 24,5 C 7,9 km/h (2 Bft) 0,00 %
08.07.2015 12:35 25,0 C 63 % 1007,3 hPa 0,0 l/m 0,0 km/h (0 Bft) O-NO 77 0 min 0,000 mm 2,0 UV-I 231 W/m 17,5 C 25,0 C 0,0 km/h (0 Bft) 0,00 %
08.07.2015 12:40 24,9 C 62 % 1007,4 hPa 0,0 l/m 0,0 km/h (0 Bft) W-SW 256 0 min 0,000 mm 2,0 UV-I 208 W/m 17,1 C 24,9 C 0,0 km/h (0 Bft) 0,00 %
08.07.2015 12:45 24,8 C 63 % 1007,5 hPa 0,0 l/m 7,9 km/h (2 Bft) SW 230 0 min 0,000 mm 2,0 UV-I 60 W/m 17,3 C 24,4 C 15,8 km/h (3 Bft) 0,00 %
08.07.2015 12:50 24,5 C 64 % 1007,8 hPa 0,0 l/m 4,7 km/h (1 Bft) W 278 0 min 0,000 mm 2,0 UV-I 65 W/m 17,2 C 24,5 C 7,9 km/h (2 Bft) 0,00 %
08.07.2015 12:55 24,3 C 64 % 1008,0 hPa 0,0 l/m 0,4 km/h (0 Bft) N-NW 338 0 min 0,000 mm 2,0 UV-I 53 W/m 17,0 C 24,3 C 4,0 km/h (1 Bft) 0,00 %
08.07.2015 13:00 24,3 C 64 % 1007,8 hPa 0,0 l/m 10,8 km/h (2 Bft) W-SW 256 0 min 0,000 mm 2,0 UV-I 36 W/m 17,0 C 23,2 C 15,8 km/h (3 Bft) 0,00 %
08.07.2015 13:05 24,1 C 65 % 1007,8 hPa 0,0 l/m 3,2 km/h (1 Bft) N 349 0 min 0,000 mm 1,0 UV-I 33 W/m 17,1 C 24,1 C 7,9 km/h (2 Bft) 0,00 %
08.07.2015 13:10 23,9 C 66 % 1007,9 hPa 0,0 l/m 4,3 km/h (1 Bft) N-NO 13 0 min 0,000 mm 0,0 UV-I 71 W/m 17,1 C 23,9 C 7,9 km/h (2 Bft) 0,00 %
08.07.2015 13:15 23,5 C 66 % 1007,7 hPa 0,0 l/m 2,9 km/h (1 Bft) NW 307 0 min 0,000 mm 0,0 UV-I 91 W/m 16,8 C 23,5 C 4,0 km/h (1 Bft) 0,00 %
08.07.2015 13:20 23,1 C 67 % 1008,2 hPa 0,0 l/m 0,7 km/h (0 Bft) O-NO 78 0 min 0,000 mm 0,0 UV-I 119 W/m 16,6 C 23,1 C 4,0 km/h (1 Bft) 0,00 %
08.07.2015 13:25 22,8 C 66 % 1008,4 hPa 0,0 l/m 2,2 km/h (1 Bft) O-NO 71 0 min 0,000 mm 0,0 UV-I 152 W/m 16,1 C 22,8 C 4,0 km/h (1 Bft) 0,00 %
08.07.2015 13:30 22,6 C 64 % 1008,6 hPa 0,0 l/m 0,4 km/h (0 Bft) N-NW 342 0 min 0,000 mm 0,0 UV-I 150 W/m 15,4 C 22,6 C 4,0 km/h (1 Bft) 0,00 %
08.07.2015 13:35 22,0 C 61 % 1008,8 hPa 0,0 l/m 0,7 km/h (0 Bft) O 90 0 min 0,000 mm 0,0 UV-I 132 W/m 14,1 C 22,0 C 4,0 km/h (1 Bft) 0,00 %
08.07.2015 13:40 21,0 C 69 % 1008,8 hPa 0,0 l/m 1,8 km/h (1 Bft) O 93 0 min 0,000 mm 1,0 UV-I 94 W/m 15,1 C 21,0 C 4,0 km/h (1 Bft) 0,00 %
08.07.2015 13:45 19,9 C 71 % 1009,3 hPa 0,0 l/m 0,4 km/h (0 Bft) S-SW 208 0 min 0,000 mm 1,0 UV-I 77 W/m 14,5 C 19,9 C 4,0 km/h (1 Bft) 0,00 %
08.07.2015 13:50 19,2 C 72 % 1009,3 hPa 0,0 l/m 0,4 km/h (0 Bft) N-NO 32 0 min 0,000 mm 1,0 UV-I 77 W/m 14,0 C 19,2 C 4,0 km/h (1 Bft) 0,00 %
08.07.2015 13:55 18,9 C 73 % 1009,7 hPa 0,0 l/m 3,2 km/h (1 Bft) W-SW 255 0 min 0,000 mm 1,0 UV-I 78 W/m 13,9 C 18,9 C 7,9 km/h (2 Bft) 0,00 %
08.07.2015 14:00 18,6 C 74 % 1009,8 hPa 0,0 l/m 4,0 km/h (1 Bft) W-SW 251 0 min 0,000 mm 1,0 UV-I 101 W/m 13,9 C 18,6 C 7,9 km/h (2 Bft) 0,00 %
08.07.2015 14:05 18,2 C 74 % 1010,3 hPa 0,0 l/m 0,0 km/h (0 Bft) N-NO 21 0 min 0,000 mm 1,0 UV-I 76 W/m 13,5 C 18,2 C 0,0 km/h (0 Bft) 0,00 %
08.07.2015 14:10 17,9 C 75 % 1010,4 hPa 0,0 l/m 11,9 km/h (2 Bft) N-NW 336 0 min 0,000 mm 0,0 UV-I 60 W/m 13,4 C 15,6 C 15,8 km/h (3 Bft) 0,00 %
08.07.2015 14:15 17,6 C 75 % 1010,7 hPa 0,0 l/m 5,8 km/h (2 Bft) W-SW 256 0 min 0,000 mm 1,0 UV-I 70 W/m 13,1 C 17,6 C 7,9 km/h (2 Bft) 0,00 %
08.07.2015 14:20 17,3 C 75 % 1010,4 hPa 0,0 l/m 4,0 km/h (1 Bft) NW 319 0 min 0,000 mm 1,0 UV-I 78 W/m 12,8 C 17,3 C 7,9 km/h (2 Bft) 0,00 %
08.07.2015 14:25 17,2 C 76 % 1010,2 hPa 0,0 l/m 7,9 km/h (2 Bft) W-SW 255 0 min 0,000 mm 1,0 UV-I 80 W/m 12,9 C 16,5 C 11,9 km/h (2 Bft) 0,00 %
08.07.2015 14:30 17,0 C 76 % 1010,3 hPa 0,0 l/m 0,0 km/h (0 Bft) NO 45 0 min 0,000 mm 1,0 UV-I 46 W/m 12,7 C 17,0 C 0,0 km/h (0 Bft) 0,00 %
08.07.2015 14:35 16,9 C 77 % 1010,6 hPa 0,0 l/m 4,3 km/h (1 Bft) N-NW 343 0 min 0,000 mm 0,0 UV-I 40 W/m 12,8 C 16,9 C 7,9 km/h (2 Bft) 0,00 %
08.07.2015 14:40 16,8 C 77 % 1010,7 hPa 0,0 l/m 8,3 km/h (2 Bft) W-SW 249 0 min 0,000 mm 0,0 UV-I 39 W/m 12,7 C 15,8 C 11,9 km/h (2 Bft) 0,00 %
08.07.2015 14:45 16,7 C 77 % 1011,1 hPa 0,0 l/m 11,5 km/h (2 Bft) W-SW 240 0 min 0,000 mm 1,0 UV-I 41 W/m 12,6 C 14,4 C 15,8 km/h (3 Bft) 0,00 %
08.07.2015 14:50 16,7 C 78 % 1010,9 hPa 0,0 l/m 0,0 km/h (0 Bft) O-NO 58 0 min 0,000 mm 1,0 UV-I 69 W/m 12,8 C 16,7 C 0,0 km/h (0 Bft) 0,00 %
08.07.2015 14:55 16,6 C 78 % 1011,2 hPa 0,0 l/m 3,2 km/h (1 Bft) W-SW 256 0 min 0,000 mm 0,0 UV-I 81 W/m 12,7 C 16,6 C 4,0 km/h (1 Bft) 0,00 %
08.07.2015 15:00 16,5 C 79 % 1011,1 hPa 0,0 l/m 1,8 km/h (1 Bft) NW 308 0 min 0,000 mm 0,0 UV-I 94 W/m 12,8 C 16,5 C 4,0 km/h (1 Bft) 0,00 %
08.07.2015 15:05 16,5 C 80 % 1011,1 hPa 0,0 l/m 14,4 km/h (3 Bft) W-SW 256 0 min 0,000 mm 0,0 UV-I 188 W/m 13,0 C 13,2 C 19,8 km/h (3 Bft) 0,00 %
08.07.2015 15:10 16,3 C 82 % 1011,3 hPa 0,0 l/m 1,4 km/h (1 Bft) W-SW 256 0 min 0,000 mm 0,0 UV-I 174 W/m 13,2 C 16,3 C 4,0 km/h (1 Bft) 0,00 %
08.07.2015 15:15 16,2 C 84 % 1011,5 hPa 0,3 l/m 0,7 km/h (0 Bft) N-NW 348 0 min 0,000 mm 1,0 UV-I 172 W/m 13,5 C 16,2 C 4,0 km/h (1 Bft) 0,00 %
08.07.2015 15:20 15,9 C 88 % 1011,7 hPa 0,3 l/m 3,2 km/h (1 Bft) SW 214 0 min 0,000 mm 1,0 UV-I 137 W/m 13,9 C 15,9 C 7,9 km/h (2 Bft) 0,00 %
08.07.2015 15:25 15,6 C 89 % 1011,8 hPa 0,6 l/m 2,9 km/h (1 Bft) O-SO 116 0 min 0,000 mm 1,0 UV-I 149 W/m 13,8 C 15,6 C 4,0 km/h (1 Bft) 0,00 %
08.07.2015 15:30 15,4 C 91 % 1010,8 hPa 0,6 l/m 2,9 km/h (1 Bft) NO 53 0 min 0,000 mm 1,0 UV-I 132 W/m 13,9 C 15,4 C 7,9 km/h (2 Bft) 0,00 %
08.07.2015 15:35 15,2 C 91 % 1010,9 hPa 0,3 l/m 4,7 km/h (1 Bft) N-NW 330 0 min 0,000 mm 1,0 UV-I 126 W/m 13,7 C 15,2 C 7,9 km/h (2 Bft) 0,00 %
08.07.2015 15:40 15,2 C 92 % 1011,0 hPa 0,0 l/m 0,7 km/h (0 Bft) N-NW 334 0 min 0,000 mm 1,0 UV-I 150 W/m 13,9 C 15,2 C 4,0 km/h (1 Bft) 0,00 %
08.07.2015 15:45 15,2 C 92 % 1012,1 hPa 0,3 l/m 5,4 km/h (1 Bft) W-NW 283 0 min 0,000 mm 1,0 UV-I 134 W/m 13,9 C 15,2 C 7,9 km/h (2 Bft) 0,00 %
08.07.2015 15:50 15,2 C 92 % 1012,2 hPa 0,0 l/m 0,0 km/h (0 Bft) O 90 0 min 0,000 mm 1,0 UV-I 93 W/m 13,9 C 15,2 C 0,0 km/h (0 Bft) 0,00 %
08.07.2015 15:55 15,3 C 92 % 1012,1 hPa 0,0 l/m 0,7 km/h (0 Bft) N-NW 346 0 min 0,000 mm 1,0 UV-I 83 W/m 14,0 C 15,3 C 4,0 km/h (1 Bft) 0,00 %
08.07.2015 16:00 15,3 C 92 % 1012,2 hPa 0,0 l/m 0,4 km/h (0 Bft) N-NW 329 0 min 0,000 mm 1,0 UV-I 86 W/m 14,0 C 15,3 C 4,0 km/h (1 Bft) 0,00 %
08.07.2015 16:05 15,3 C 92 % 1012,0 hPa 0,0 l/m 0,0 km/h (0 Bft) O 80 0 min 0,000 mm 1,0 UV-I 74 W/m 14,0 C 15,3 C 0,0 km/h (0 Bft) 0,00 %
08.07.2015 16:10 15,3 C 91 % 1012,1 hPa 0,0 l/m 0,7 km/h (0 Bft) W-SW 255 0 min 0,000 mm 1,0 UV-I 63 W/m 13,8 C 15,3 C 4,0 km/h (1 Bft) 0,00 %
08.07.2015 16:15 15,4 C 91 % 1011,8 hPa 0,0 l/m 0,0 km/h (0 Bft) NO 53 0 min 0,000 mm 1,0 UV-I 53 W/m 13,9 C 15,4 C 0,0 km/h (0 Bft) 0,00 %
08.07.2015 16:20 15,4 C 91 % 1011,9 hPa 0,0 l/m 0,0 km/h (0 Bft) NO 38 0 min 0,000 mm 1,0 UV-I 69 W/m 13,9 C 15,4 C 0,0 km/h (0 Bft) 0,00 %
08.07.2015 16:25 15,4 C 91 % 1012,0 hPa 0,0 l/m 0,0 km/h (0 Bft) NO 35 0 min 0,000 mm 1,0 UV-I 66 W/m 13,9 C 15,4 C 0,0 km/h (0 Bft) 0,00 %
08.07.2015 16:30 15,4 C 92 % 1012,0 hPa 0,3 l/m 0,0 km/h (0 Bft) NO 36 0 min 0,000 mm 1,0 UV-I 60 W/m 14,1 C 15,4 C 0,0 km/h (0 Bft) 0,00 %
08.07.2015 16:35 15,4 C 92 % 1012,2 hPa 0,0 l/m 0,0 km/h (0 Bft) O-NO 73 0 min 0,000 mm 0,0 UV-I 58 W/m 14,1 C 15,4 C 0,0 km/h (0 Bft) 0,00 %
08.07.2015 16:40 15,4 C 92 % 1012,0 hPa 0,0 l/m 2,9 km/h (1 Bft) O-NO 67 0 min 0,000 mm 1,0 UV-I 64 W/m 14,1 C 15,4 C 7,9 km/h (2 Bft) 0,00 %
08.07.2015 16:45 15,3 C 91 % 1012,4 hPa 0,0 l/m 0,0 km/h (0 Bft) NO 47 0 min 0,000 mm 0,0 UV-I 60 W/m 13,8 C 15,3 C 0,0 km/h (0 Bft) 0,00 %
08.07.2015 16:50 15,3 C 91 % 1012,0 hPa 0,0 l/m 0,0 km/h (0 Bft) N-NW 343 0 min 0,000 mm 0,0 UV-I 66 W/m 13,8 C 15,3 C 0,0 km/h (0 Bft) 0,00 %
08.07.2015 16:55 15,3 C 92 % 1012,1 hPa 0,0 l/m 0,4 km/h (0 Bft) SW 224 0 min 0,000 mm 0,0 UV-I 56 W/m 14,0 C 15,3 C 4,0 km/h (1 Bft) 0,00 %
08.07.2015 17:00 15,3 C 92 % 1012,1 hPa 0,0 l/m 0,0 km/h (0 Bft) NO 40 0 min 0,000 mm 0,0 UV-I 66 W/m 14,0 C 15,3 C 0,0 km/h (0 Bft) 0,00 %
08.07.2015 17:05 15,3 C 92 % 1012,0 hPa 0,0 l/m 0,0 km/h (0 Bft) O-NO 61 0 min 0,000 mm 0,0 UV-I 84 W/m 14,0 C 15,3 C 0,0 km/h (0 Bft) 0,00 %
08.07.2015 17:10 15,4 C 92 % 1011,9 hPa 0,0 l/m 0,0 km/h (0 Bft) N-NO 32 0 min 0,000 mm 0,0 UV-I 71 W/m 14,1 C 15,4 C 0,0 km/h (0 Bft) 0,00 %
08.07.2015 17:15 15,4 C 92 % 1011,9 hPa 0,0 l/m 0,0 km/h (0 Bft) NO 39 0 min 0,000 mm 0,0 UV-I 59 W/m 14,1 C 15,4 C 0,0 km/h (0 Bft) 0,00 %
08.07.2015 17:20 15,5 C 92 % 1011,9 hPa 0,0 l/m 0,0 km/h (0 Bft) O-NO 72 0 min 0,000 mm 0,0 UV-I 47 W/m 14,2 C 15,5 C 0,0 km/h (0 Bft) 0,00 %
08.07.2015 17:25 15,5 C 92 % 1011,8 hPa 0,0 l/m 0,4 km/h (0 Bft) N-NW 343 0 min 0,000 mm 0,0 UV-I 49 W/m 14,2 C 15,5 C 4,0 km/h (1 Bft) 0,00 %
08.07.2015 17:30 15,5 C 92 % 1011,8 hPa 0,0 l/m 0,0 km/h (0 Bft) NO 41 0 min 0,000 mm 0,0 UV-I 58 W/m 14,2 C 15,5 C 0,0 km/h (0 Bft) 0,00 %
08.07.2015 17:35 15,6 C 92 % 1011,7 hPa 0,0 l/m 0,0 km/h (0 Bft) NO 39 0 min 0,000 mm 0,0 UV-I 62 W/m 14,3 C 15,6 C 0,0 km/h (0 Bft) 0,00 %
08.07.2015 17:40 15,7 C 92 % 1011,7 hPa 0,0 l/m 0,0 km/h (0 Bft) N 355 0 min 0,000 mm 0,0 UV-I 63 W/m 14,4 C 15,7 C 0,0 km/h (0 Bft) 0,00 %
08.07.2015 17:45 15,7 C 92 % 1011,6 hPa 0,0 l/m 0,0 km/h (0 Bft) N-NO 27 0 min 0,000 mm 0,0 UV-I 68 W/m 14,4 C 15,7 C 0,0 km/h (0 Bft) 0,00 %
08.07.2015 17:50 15,8 C 92 % 1011,7 hPa 0,0 l/m 0,0 km/h (0 Bft) NO 36 0 min 0,000 mm 0,0 UV-I 73 W/m 14,5 C 15,8 C 0,0 km/h (0 Bft) 0,00 %
08.07.2015 17:55 15,8 C 92 % 1011,6 hPa 0,0 l/m 0,4 km/h (0 Bft) O-NO 60 0 min 0,000 mm 0,0 UV-I 55 W/m 14,5 C 15,8 C 4,0 km/h (1 Bft) 0,00 %
08.07.2015 18:00 15,9 C 91 % 1011,7 hPa 0,0 l/m 0,0 km/h (0 Bft) NO 35 0 min 0,000 mm 0,0 UV-I 53 W/m 14,4 C 15,9 C 0,0 km/h (0 Bft) 0,00 %
08.07.2015 18:05 15,9 C 91 % 1011,7 hPa 0,0 l/m 0,0 km/h (0 Bft) NO 37 0 min 0,000 mm 0,0 UV-I 46 W/m 14,4 C 15,9 C 0,0 km/h (0 Bft) 0,00 %
08.07.2015 18:10 15,9 C 91 % 1011,7 hPa 0,0 l/m 0,0 km/h (0 Bft) N 0 0 min 0,000 mm 0,0 UV-I 22 W/m 14,4 C 15,9 C 0,0 km/h (0 Bft) 0,00 %
08.07.2015 18:15 15,9 C 90 % 1011,6 hPa 0,0 l/m 0,0 km/h (0 Bft) NO 47 0 min 0,000 mm 0,0 UV-I 46 W/m 14,3 C 15,9 C 0,0 km/h (0 Bft) 0,00 %
08.07.2015 18:20 15,9 C 90 % 1011,7 hPa 0,0 l/m 0,0 km/h (0 Bft) NO 36 0 min 0,000 mm 0,0 UV-I 63 W/m 14,3 C 15,9 C 0,0 km/h (0 Bft) 0,00 %
08.07.2015 18:25 16,0 C 89 % 1011,4 hPa 0,0 l/m 0,0 km/h (0 Bft) N-NW 343 0 min 0,000 mm 0,0 UV-I 73 W/m 14,2 C 16,0 C 0,0 km/h (0 Bft) 0,00 %
08.07.2015 18:30 16,0 C 89 % 1011,5 hPa 0,0 l/m 0,0 km/h (0 Bft) O-NO 63 0 min 0,000 mm 0,0 UV-I 72 W/m 14,2 C 16,0 C 0,0 km/h (0 Bft) 0,00 %
08.07.2015 18:35 16,1 C 89 % 1011,3 hPa 0,0 l/m 0,0 km/h (0 Bft) NO 42 0 min 0,000 mm 0,0 UV-I 73 W/m 14,3 C 16,1 C 0,0 km/h (0 Bft) 0,00 %
08.07.2015 18:40 16,1 C 89 % 1011,5 hPa 0,0 l/m 0,0 km/h (0 Bft) N-NO 32 0 min 0,000 mm 0,0 UV-I 80 W/m 14,3 C 16,1 C 0,0 km/h (0 Bft) 0,00 %
08.07.2015 18:45 16,1 C 89 % 1011,5 hPa 0,0 l/m 0,4 km/h (0 Bft) N 356 0 min 0,000 mm 0,0 UV-I 83 W/m 14,3 C 16,1 C 4,0 km/h (1 Bft) 0,00 %
08.07.2015 18:50 16,1 C 89 % 1011,6 hPa 0,0 l/m 0,0 km/h (0 Bft) N-NO 25 0 min 0,000 mm 0,0 UV-I 84 W/m 14,3 C 16,1 C 0,0 km/h (0 Bft) 0,00 %
08.07.2015 18:55 16,1 C 89 % 1011,7 hPa 0,0 l/m 0,0 km/h (0 Bft) W-SW 244 0 min 0,000 mm 0,0 UV-I 105 W/m 14,3 C 16,1 C 0,0 km/h (0 Bft) 0,00 %
08.07.2015 19:00 16,1 C 89 % 1011,5 hPa 0,0 l/m 0,4 km/h (0 Bft) W-SW 254 0 min 0,000 mm 0,0 UV-I 123 W/m 14,3 C 16,1 C 4,0 km/h (1 Bft) 0,00 %
08.07.2015 19:05 16,1 C 89 % 1011,6 hPa 0,0 l/m 0,0 km/h (0 Bft) N-NO 28 5 min 0,000 mm 0,0 UV-I 241 W/m 14,3 C 16,1 C 0,0 km/h (0 Bft) 0,00 %
08.07.2015 19:10 16,1 C 88 % 1011,7 hPa 0,0 l/m 0,0 km/h (0 Bft) N 356 5 min 0,000 mm 0,0 UV-I 247 W/m 14,1 C 16,1 C 0,0 km/h (0 Bft) 0,00 %
08.07.2015 19:15 16,1 C 88 % 1011,6 hPa 0,0 l/m 0,0 km/h (0 Bft) NO 54 5 min 0,000 mm 0,0 UV-I 166 W/m 14,1 C 16,1 C 0,0 km/h (0 Bft) 0,00 %
08.07.2015 19:20 16,2 C 88 % 1011,6 hPa 0,0 l/m 0,0 km/h (0 Bft) NO 53 5 min 0,000 mm 0,0 UV-I 216 W/m 14,2 C 16,2 C 0,0 km/h (0 Bft) 0,00 %
08.07.2015 19:25 16,3 C 88 % 1011,4 hPa 0,0 l/m 0,0 km/h (0 Bft) NO 50 5 min 0,000 mm 0,0 UV-I 184 W/m 14,3 C 16,3 C 0,0 km/h (0 Bft) 0,00 %
08.07.2015 19:30 16,3 C 88 % 1011,4 hPa 0,0 l/m 0,0 km/h (0 Bft) N-NO 33 5 min 0,000 mm 0,0 UV-I 142 W/m 14,3 C 16,3 C 0,0 km/h (0 Bft) 0,00 %
08.07.2015 19:35 16,4 C 88 % 1011,2 hPa 0,0 l/m 0,0 km/h (0 Bft) N-NO 26 0 min 0,000 mm 0,0 UV-I 111 W/m 14,4 C 16,4 C 0,0 km/h (0 Bft) 0,00 %
08.07.2015 19:40 16,4 C 88 % 1011,3 hPa 0,0 l/m 0,0 km/h (0 Bft) N-NO 25 0 min 0,000 mm 0,0 UV-I 74 W/m 14,4 C 16,4 C 0,0 km/h (0 Bft) 0,00 %
08.07.2015 19:45 16,4 C 88 % 1011,1 hPa 0,0 l/m 0,4 km/h (0 Bft) NO 48 0 min 0,000 mm 0,0 UV-I 42 W/m 14,4 C 16,4 C 4,0 km/h (1 Bft) 0,00 %
08.07.2015 19:50 16,4 C 88 % 1011,2 hPa 0,0 l/m 0,0 km/h (0 Bft) NO 48 0 min 0,000 mm 0,0 UV-I 30 W/m 14,4 C 16,4 C 0,0 km/h (0 Bft) 0,00 %
08.07.2015 19:55 16,5 C 88 % 1011,3 hPa 0,0 l/m 0,0 km/h (0 Bft) NO 43 0 min 0,000 mm 0,0 UV-I 21 W/m 14,5 C 16,5 C 0,0 km/h (0 Bft) 0,00 %
08.07.2015 20:00 16,8 C 87 % 1011,5 hPa 0,0 l/m 0,0 km/h (0 Bft) O-NO 69 0 min 0,000 mm 0,0 UV-I 9 W/m 14,6 C 16,8 C 0,0 km/h (0 Bft) 0,00 %
08.07.2015 20:05 17,1 C 86 % 1011,4 hPa 0,0 l/m 0,4 km/h (0 Bft) N 351 0 min 0,000 mm 0,0 UV-I 4 W/m 14,7 C 17,1 C 4,0 km/h (1 Bft) 0,00 %
08.07.2015 20:10 17,2 C 84 % 1011,3 hPa 0,0 l/m 0,0 km/h (0 Bft) N-NW 339 0 min 0,000 mm 0,0 UV-I 0 W/m 14,5 C 17,2 C 0,0 km/h (0 Bft) 0,00 %
08.07.2015 20:15 17,3 C 84 % 1011,4 hPa 0,0 l/m 0,7 km/h (0 Bft) S 172 0 min 0,000 mm 0,0 UV-I 0 W/m 14,6 C 17,3 C 4,0 km/h (1 Bft) 0,00 %
08.07.2015 20:20 17,4 C 84 % 1011,2 hPa 0,0 l/m 0,0 km/h (0 Bft) NO 40 0 min 0,000 mm 0,0 UV-I 0 W/m 14,7 C 17,4 C 0,0 km/h (0 Bft) 0,00 %
08.07.2015 20:25 17,4 C 84 % 1011,5 hPa 0,0 l/m 0,0 km/h (0 Bft) N-NW 334 0 min 0,000 mm 0,0 UV-I 0 W/m 14,7 C 17,4 C 0,0 km/h (0 Bft) 0,00 %
08.07.2015 20:30 17,3 C 83 % 1011,8 hPa 0,0 l/m 0,0 km/h (0 Bft) N-NO 26 0 min 0,000 mm 0,0 UV-I 0 W/m 14,4 C 17,3 C 0,0 km/h (0 Bft) 0,00 %
08.07.2015 20:35 17,2 C 84 % 1011,7 hPa 0,0 l/m 0,0 km/h (0 Bft) NO 39 0 min 0,000 mm 0,0 UV-I 0 W/m 14,5 C 17,2 C 0,0 km/h (0 Bft) 0,00 %
08.07.2015 20:40 17,0 C 83 % 1012,0 hPa 0,0 l/m 4,0 km/h (1 Bft) W-SW 252 0 min 0,000 mm 0,0 UV-I 0 W/m 14,1 C 17,0 C 7,9 km/h (2 Bft) 0,00 %
08.07.2015 20:45 16,8 C 84 % 1012,1 hPa 0,0 l/m 0,4 km/h (0 Bft) NO 56 0 min 0,000 mm 0,0 UV-I 0 W/m 14,1 C 16,8 C 4,0 km/h (1 Bft) 0,00 %
08.07.2015 20:50 16,7 C 84 % 1012,3 hPa 0,0 l/m 0,0 km/h (0 Bft) N-NO 33 0 min 0,000 mm 0,0 UV-I 0 W/m 14,0 C 16,7 C 0,0 km/h (0 Bft) 0,00 %
08.07.2015 20:55 16,6 C 85 % 1012,4 hPa 0,0 l/m 0,0 km/h (0 Bft) N-NW 346 0 min 0,000 mm 0,0 UV-I 0 W/m 14,1 C 16,6 C 0,0 km/h (0 Bft) 0,00 %
08.07.2015 21:00 16,4 C 85 % 1012,3 hPa 0,0 l/m 0,0 km/h (0 Bft) O 88 0 min 0,000 mm 0,0 UV-I 0 W/m 13,9 C 16,4 C 0,0 km/h (0 Bft) 0,00 %
08.07.2015 21:05 16,4 C 86 % 1012,4 hPa 0,0 l/m 0,0 km/h (0 Bft) N 351 0 min 0,000 mm 0,0 UV-I 0 W/m 14,1 C 16,4 C 0,0 km/h (0 Bft) 0,00 %
08.07.2015 21:10 16,2 C 87 % 1012,6 hPa 0,0 l/m 0,4 km/h (0 Bft) O-NO 76 0 min 0,000 mm 0,0 UV-I 0 W/m 14,0 C 16,2 C 4,0 km/h (1 Bft) 0,00 %
08.07.2015 21:15 16,1 C 87 % 1012,4 hPa 0,0 l/m 0,4 km/h (0 Bft) O-NO 61 0 min 0,000 mm 0,0 UV-I 0 W/m 13,9 C 16,1 C 4,0 km/h (1 Bft) 0,00 %
08.07.2015 21:20 16,1 C 87 % 1012,6 hPa 0,0 l/m 0,4 km/h (0 Bft) N 353 0 min 0,000 mm 0,0 UV-I 0 W/m 13,9 C 16,1 C 4,0 km/h (1 Bft) 0,00 %
08.07.2015 21:25 16,1 C 87 % 1012,6 hPa 0,0 l/m 0,0 km/h (0 Bft) N-NO 27 0 min 0,000 mm 0,0 UV-I 0 W/m 13,9 C 16,1 C 0,0 km/h (0 Bft) 0,00 %
08.07.2015 21:30 16,1 C 87 % 1012,8 hPa 0,0 l/m 0,0 km/h (0 Bft) N-NO 32 0 min 0,000 mm 0,0 UV-I 0 W/m 13,9 C 16,1 C 0,0 km/h (0 Bft) 0,00 %
08.07.2015 21:35 16,1 C 87 % 1012,8 hPa 0,0 l/m 0,0 km/h (0 Bft) N 356 0 min 0,000 mm 0,0 UV-I 0 W/m 13,9 C 16,1 C 0,0 km/h (0 Bft) 0,00 %
08.07.2015 21:40 16,0 C 89 % 1012,8 hPa 0,0 l/m 0,4 km/h (0 Bft) N 354 0 min 0,000 mm 0,0 UV-I 0 W/m 14,2 C 16,0 C 4,0 km/h (1 Bft) 0,00 %
08.07.2015 21:45 15,9 C 89 % 1013,0 hPa 0,0 l/m 0,4 km/h (0 Bft) W-NW 292 0 min 0,000 mm 0,0 UV-I 0 W/m 14,1 C 15,9 C 4,0 km/h (1 Bft) 0,00 %
08.07.2015 21:50 15,8 C 89 % 1012,7 hPa 0,0 l/m 0,0 km/h (0 Bft) N-NO 29 0 min 0,000 mm 0,0 UV-I 0 W/m 14,0 C 15,8 C 0,0 km/h (0 Bft) 0,00 %
08.07.2015 21:55 15,7 C 89 % 1012,8 hPa 0,0 l/m 0,0 km/h (0 Bft) NO 37 0 min 0,000 mm 0,0 UV-I 0 W/m 13,9 C 15,7 C 0,0 km/h (0 Bft) 0,00 %
08.07.2015 22:00 15,6 C 89 % 1012,9 hPa 0,0 l/m 0,0 km/h (0 Bft) N 4 0 min 0,000 mm 0,0 UV-I 0 W/m 13,8 C 15,6 C 0,0 km/h (0 Bft) 0,00 %
08.07.2015 22:05 15,6 C 89 % 1012,9 hPa 0,0 l/m 0,0 km/h (0 Bft) N 351 0 min 0,000 mm 0,0 UV-I 0 W/m 13,8 C 15,6 C 0,0 km/h (0 Bft) 0,00 %
08.07.2015 22:10 15,5 C 89 % 1013,1 hPa 0,0 l/m 0,0 km/h (0 Bft) NO 44 0 min 0,000 mm 0,0 UV-I 0 W/m 13,7 C 15,5 C 0,0 km/h (0 Bft) 0,00 %
08.07.2015 22:15 15,5 C 89 % 1013,1 hPa 0,0 l/m 0,7 km/h (0 Bft) NW 325 0 min 0,000 mm 0,0 UV-I 0 W/m 13,7 C 15,5 C 4,0 km/h (1 Bft) 0,00 %
08.07.2015 22:20 15,4 C 89 % 1013,1 hPa 0,0 l/m 3,2 km/h (1 Bft) NW 312 0 min 0,000 mm 0,0 UV-I 0 W/m 13,6 C 15,4 C 4,0 km/h (1 Bft) 0,00 %
08.07.2015 22:25 15,3 C 90 % 1013,2 hPa 0,0 l/m 0,0 km/h (0 Bft) N-NW 346 0 min 0,000 mm 0,0 UV-I 0 W/m 13,7 C 15,3 C 0,0 km/h (0 Bft) 0,00 %
08.07.2015 22:30 15,3 C 90 % 1013,2 hPa 0,0 l/m 0,0 km/h (0 Bft) N 355 0 min 0,000 mm 0,0 UV-I 0 W/m 13,7 C 15,3 C 0,0 km/h (0 Bft) 0,00 %
08.07.2015 22:35 15,2 C 90 % 1013,2 hPa 0,0 l/m 0,0 km/h (0 Bft) NW 315 0 min 0,000 mm 0,0 UV-I 0 W/m 13,6 C 15,2 C 0,0 km/h (0 Bft) 0,00 %
08.07.2015 22:40 15,1 C 90 % 1013,2 hPa 0,0 l/m 0,0 km/h (0 Bft) N-NW 344 0 min 0,000 mm 0,0 UV-I 0 W/m 13,5 C 15,1 C 0,0 km/h (0 Bft) 0,00 %
08.07.2015 22:45 15,1 C 90 % 1013,3 hPa 0,0 l/m 0,0 km/h (0 Bft) NO 42 0 min 0,000 mm 0,0 UV-I 0 W/m 13,5 C 15,1 C 0,0 km/h (0 Bft) 0,00 %
08.07.2015 22:50 15,0 C 91 % 1013,3 hPa 0,0 l/m 0,0 km/h (0 Bft) N-NO 28 0 min 0,000 mm 0,0 UV-I 0 W/m 13,5 C 15,0 C 0,0 km/h (0 Bft) 0,00 %
08.07.2015 22:55 15,0 C 91 % 1013,5 hPa 0,0 l/m 0,0 km/h (0 Bft) N-NO 20 0 min 0,000 mm 0,0 UV-I 0 W/m 13,5 C 15,0 C 0,0 km/h (0 Bft) 0,00 %
08.07.2015 23:00 15,0 C 91 % 1013,5 hPa 0,0 l/m 0,0 km/h (0 Bft) N-NO 19 0 min 0,000 mm 0,0 UV-I 0 W/m 13,5 C 15,0 C 0,0 km/h (0 Bft) 0,00 %
08.07.2015 23:05 14,9 C 92 % 1013,6 hPa 0,0 l/m 0,0 km/h (0 Bft) N 356 0 min 0,000 mm 0,0 UV-I 0 W/m 13,6 C 14,9 C 0,0 km/h (0 Bft) 0,00 %
08.07.2015 23:10 14,9 C 92 % 1013,6 hPa 0,0 l/m 0,0 km/h (0 Bft) N-NO 32 0 min 0,000 mm 0,0 UV-I 0 W/m 13,6 C 14,9 C 0,0 km/h (0 Bft) 0,00 %
08.07.2015 23:15 14,8 C 93 % 1013,5 hPa 0,0 l/m 0,0 km/h (0 Bft) NO 40 0 min 0,000 mm 0,0 UV-I 0 W/m 13,7 C 14,8 C 0,0 km/h (0 Bft) 0,00 %
08.07.2015 23:20 14,7 C 93 % 1013,5 hPa 0,0 l/m 0,0 km/h (0 Bft) NO 52 0 min 0,000 mm 0,0 UV-I 0 W/m 13,6 C 14,7 C 0,0 km/h (0 Bft) 0,00 %
08.07.2015 23:25 14,7 C 93 % 1013,5 hPa 0,0 l/m 0,0 km/h (0 Bft) NO 54 0 min 0,000 mm 0,0 UV-I 0 W/m 13,6 C 14,7 C 0,0 km/h (0 Bft) 0,00 %
08.07.2015 23:30 14,6 C 93 % 1013,5 hPa 0,0 l/m 0,0 km/h (0 Bft) NO 39 0 min 0,000 mm 0,0 UV-I 0 W/m 13,5 C 14,6 C 0,0 km/h (0 Bft) 0,00 %
08.07.2015 23:35 14,6 C 93 % 1013,6 hPa 0,0 l/m 0,0 km/h (0 Bft) N-NW 333 0 min 0,000 mm 0,0 UV-I 0 W/m 13,5 C 14,6 C 0,0 km/h (0 Bft) 0,00 %
08.07.2015 23:40 14,6 C 93 % 1013,5 hPa 0,0 l/m 0,0 km/h (0 Bft) NO 48 0 min 0,000 mm 0,0 UV-I 0 W/m 13,5 C 14,6 C 0,0 km/h (0 Bft) 0,00 %
08.07.2015 23:45 14,6 C 93 % 1013,4 hPa 0,0 l/m 0,0 km/h (0 Bft) NO 52 0 min 0,000 mm 0,0 UV-I 0 W/m 13,5 C 14,6 C 0,0 km/h (0 Bft) 0,00 %
08.07.2015 23:50 14,6 C 93 % 1013,5 hPa 0,0 l/m 0,0 km/h (0 Bft) O-NO 75 0 min 0,000 mm 0,0 UV-I 0 W/m 13,5 C 14,6 C 0,0 km/h (0 Bft) 0,00 %
_ Min-Zeit 23:30 01:00 00:00 - 00:00 - - - - - - 01:00 15:05 00:00 00:00
Minimum _ 14,6 C 41 % 1002,7 hPa - 0,0 km/h (0 Bft) - - - - - - 12,2 C 13,2 C 0,0 km/h (0 Bft) 0,00 %
_ Max-Zeit 01:00 23:15 23:05 15:25 00:50 - - 06:40 00:00 12:25 12:10 00:35 01:10 00:40 00:00
Maximum _ 26,6 C 93 % 1013,6 hPa 0,6 l/m 15,8 km/h
W-SW (3 Bft)
- - 5 min 0,000 mm 4,0 UV-I 869 W/m 18,5 C 26,3 C 19,8 km/h
W-NW (3 Bft)
0,00 %
Durchschnitt _ 20,0 C 73 % 1009,4 hPa #3,0 l/m 2,0 km/h (1 Bft) W-SW - #3:15 h #0,000 mm 1,4 UV-I 186 W/m 14,6 C 19,9 C 3,9 km/h (1 Bft) 0,00 %